Time,TemperatureF,DewpointF,PressureIn,WindDirection,WindDirectionDegrees,WindSpeedMPH,WindSpeedGustMPH,Humidity,HourlyPrecipIn,Conditions,Clouds,dailyrainin,SoftwareType,DateUTC
2013-06-14 00:01:00,67.3,45.2,29.91,NW,318,3.0,7.0,45,0.00,,,0.00,WUHU216DAVISVP2,2013-06-14 07:01:00,
2013-06-14 00:06:00,67.0,44.9,29.91,NW,322,4.0,7.0,45,0.00,,,0.00,WUHU216DAVISVP2,2013-06-14 07:06:00,
2013-06-14 00:11:00,66.7,45.3,29.91,NW,304,5.0,6.0,46,0.00,,,0.00,WUHU216DAVISVP2,2013-06-14 07:11:00,
2013-06-14 00:16:00,66.4,45.0,29.91,NNW,327,3.0,6.0,46,0.00,,,0.00,WUHU216DAVISVP2,2013-06-14 07:16:00,
2013-06-14 00:21:00,66.1,45.3,29.91,NW,318,4.0,7.0,47,0.00,,,0.00,WUHU216DAVISVP2,2013-06-14 07:21:00,
2013-06-14 00:26:00,65.9,45.1,29.91,NNW,327,4.0,7.0,47,0.00,,,0.00,WUHU216DAVISVP2,2013-06-14 07:26:00,
2013-06-14 00:31:00,65.7,45.5,29.91,NW,321,3.0,6.0,48,0.00,,,0.00,WUHU216DAVISVP2,2013-06-14 07:31:00,
2013-06-14 00:36:00,65.4,45.2,29.91,NW,321,2.0,5.0,48,0.00,,,0.00,WUHU216DAVISVP2,2013-06-14 07:36:00,
2013-06-14 00:41:00,65.3,45.7,29.90,NW,311,0.0,6.0,49,0.00,,,0.00,WUHU216DAVISVP2,2013-06-14 07:41:00,
2013-06-14 00:46:00,65.4,45.2,29.90,WNW,286,1.0,6.0,48,0.00,,,0.00,WUHU216DAVISVP2,2013-06-14 07:46:00,
2013-06-14 00:51:00,65.5,45.3,29.90,NW,306,5.0,8.0,48,0.00,,,0.00,WUHU216DAVISVP2,2013-06-14 07:51:00,
2013-06-14 00:56:00,65.5,45.3,29.90,NW,317,3.0,8.0,48,0.00,,,0.00,WUHU216DAVISVP2,2013-06-14 07:56:00,
2013-06-14 01:01:00,65.7,45.5,29.90,NW,319,6.0,7.0,48,0.00,,,0.00,WUHU216DAVISVP2,2013-06-14 08:01:00,
2013-06-14 01:06:00,65.8,45.6,29.90,WNW,302,5.0,9.0,48,0.00,,,0.00,WUHU216DAVISVP2,2013-06-14 08:06:00,
2013-06-14 01:11:00,65.7,45.5,29.90,NW,316,4.0,9.0,48,0.00,,,0.00,WUHU216DAVISVP2,2013-06-14 08:11:00,
2013-06-14 01:16:00,65.6,45.4,29.90,NW,315,4.0,9.0,48,0.00,,,0.00,WUHU216DAVISVP2,2013-06-14 08:16:00,
2013-06-14 01:21:00,65.6,45.9,29.90,NW,309,4.0,8.0,49,0.00,,,0.00,WUHU216DAVISVP2,2013-06-14 08:21:00,
2013-06-14 01:26:00,65.6,45.9,29.90,NW,319,5.0,8.0,49,0.00,,,0.00,WUHU216DAVISVP2,2013-06-14 08:26:00,
2013-06-14 01:31:00,65.4,45.8,29.90,NNW,334,5.0,8.0,49,0.00,,,0.00,WUHU216DAVISVP2,2013-06-14 08:31:00,
2013-06-14 01:36:00,65.3,46.2,29.90,NW,310,3.0,8.0,50,0.00,,,0.00,WUHU216DAVISVP2,2013-06-14 08:36:00,
2013-06-14 01:41:00,65.1,46.0,29.89,NNW,333,6.0,10.0,50,0.00,,,0.00,WUHU216DAVISVP2,2013-06-14 08:41:00,
2013-06-14 01:46:00,64.8,46.2,29.89,North,355,4.0,10.0,51,0.00,,,0.00,WUHU216DAVISVP2,2013-06-14 08:46:00,
2013-06-14 01:51:00,64.7,46.1,29.89,NW,320,4.0,8.0,51,0.00,,,0.00,WUHU216DAVISVP2,2013-06-14 08:51:00,
2013-06-14 01:56:00,64.5,46.5,29.89,NW,317,4.0,6.0,52,0.00,,,0.00,WUHU216DAVISVP2,2013-06-14 08:56:00,
2013-06-14 02:01:00,64.4,46.4,29.89,NW,326,4.0,7.0,52,0.00,,,0.00,WUHU216DAVISVP2,2013-06-14 09:01:00,
2013-06-14 02:06:00,64.3,46.4,29.89,WNW,299,2.0,7.0,52,0.00,,,0.00,WUHU216DAVISVP2,2013-06-14 09:06:00,
2013-06-14 02:11:00,64.4,46.4,29.89,NW,323,1.0,6.0,52,0.00,,,0.00,WUHU216DAVISVP2,2013-06-14 09:11:00,
2013-06-14 02:16:00,64.0,46.6,29.89,NNW,331,4.0,5.0,53,0.00,,,0.00,WUHU216DAVISVP2,2013-06-14 09:16:00,
2013-06-14 02:21:00,63.5,46.6,29.88,NNW,333,2.0,5.0,54,0.00,,,0.00,WUHU216DAVISVP2,2013-06-14 09:21:00,
2013-06-14 02:26:00,63.1,46.8,29.88,NNW,338,3.0,5.0,55,0.00,,,0.00,WUHU216DAVISVP2,2013-06-14 09:26:00,
2013-06-14 02:31:00,62.7,46.9,29.88,NNW,338,2.0,5.0,56,0.00,,,0.00,WUHU216DAVISVP2,2013-06-14 09:31:00,
2013-06-14 02:36:00,62.3,46.9,29.88,NNW,340,5.0,6.0,57,0.00,,,0.00,WUHU216DAVISVP2,2013-06-14 09:36:00,
2013-06-14 02:41:00,62.1,47.1,29.88,NNW,328,4.0,6.0,58,0.00,,,0.00,WUHU216DAVISVP2,2013-06-14 09:41:00,
2013-06-14 02:46:00,62.0,47.0,29.88,NNW,329,3.0,6.0,58,0.00,,,0.00,WUHU216DAVISVP2,2013-06-14 09:46:00,
2013-06-14 02:51:00,62.0,47.0,29.88,NNW,329,4.0,6.0,58,0.00,,,0.00,WUHU216DAVISVP2,2013-06-14 09:51:00,
2013-06-14 02:56:00,62.1,47.3,29.88,NNW,328,4.0,5.0,58,0.00,,,0.00,WUHU216DAVISVP2,2013-06-14 09:56:00,
2013-06-14 03:01:00,62.0,47.2,29.88,NNW,333,2.0,5.0,58,0.00,,,0.00,WUHU216DAVISVP2,2013-06-14 10:01:00,
2013-06-14 03:06:00,61.9,47.1,29.88,NNW,331,4.0,6.0,58,0.00,,,0.00,WUHU216DAVISVP2,2013-06-14 10:06:00,
2013-06-14 03:11:00,61.8,47.4,29.88,NNW,331,2.0,6.0,59,0.00,,,0.00,WUHU216DAVISVP2,2013-06-14 10:11:00,
2013-06-14 03:16:00,61.6,47.3,29.88,NNW,331,2.0,4.0,59,0.00,,,0.00,WUHU216DAVISVP2,2013-06-14 10:16:00,
2013-06-14 03:21:00,61.5,47.2,29.89,NNW,331,0.0,4.0,59,0.00,,,0.00,WUHU216DAVISVP2,2013-06-14 10:21:00,
2013-06-14 03:26:00,61.2,47.3,29.88,NNW,331,2.0,3.0,60,0.00,,,0.00,WUHU216DAVISVP2,2013-06-14 10:26:00,
2013-06-14 03:31:00,61.2,46.4,29.88,NNW,331,0.0,2.0,58,0.00,,,0.00,WUHU216DAVISVP2,2013-06-14 10:31:00,
2013-06-14 03:36:00,60.9,46.6,29.88,NNW,331,0.0,2.0,59,0.00,,,0.00,WUHU216DAVISVP2,2013-06-14 10:36:00,
2013-06-14 03:41:00,60.8,45.9,29.88,NNW,331,0.0,3.0,58,0.00,,,0.00,WUHU216DAVISVP2,2013-06-14 10:41:00,
2013-06-14 03:46:00,60.6,46.2,29.88,NNW,331,0.0,3.0,59,0.00,,,0.00,WUHU216DAVISVP2,2013-06-14 10:46:00,
2013-06-14 03:51:00,60.4,46.0,29.88,NNW,331,0.0,2.0,59,0.00,,,0.00,WUHU216DAVISVP2,2013-06-14 10:51:00,
2013-06-14 03:56:00,60.1,46.6,29.88,NNW,331,0.0,0.0,61,0.00,,,0.00,WUHU216DAVISVP2,2013-06-14 10:56:00,
2013-06-14 04:01:00,59.7,46.8,29.89,NNW,331,0.0,0.0,62,0.00,,,0.00,WUHU216DAVISVP2,2013-06-14 11:01:00,
2013-06-14 04:06:00,59.3,47.3,29.88,NNW,331,0.0,0.0,64,0.00,,,0.00,WUHU216DAVISVP2,2013-06-14 11:06:00,
2013-06-14 04:11:00,59.1,47.5,29.89,NNW,331,0.0,0.0,65,0.00,,,0.00,WUHU216DAVISVP2,2013-06-14 11:11:00,
2013-06-14 04:16:00,59.0,47.0,29.88,NNW,331,0.0,0.0,64,0.00,,,0.00,WUHU216DAVISVP2,2013-06-14 11:16:00,
2013-06-14 04:21:00,59.0,47.4,29.88,NNW,331,0.0,0.0,65,0.00,,,0.00,WUHU216DAVISVP2,2013-06-14 11:21:00,
2013-06-14 04:26:00,58.9,46.9,29.88,NNW,331,0.0,0.0,64,0.00,,,0.00,WUHU216DAVISVP2,2013-06-14 11:26:00,
2013-06-14 04:31:00,58.8,47.2,29.88,NNW,331,0.0,0.0,65,0.00,,,0.00,WUHU216DAVISVP2,2013-06-14 11:31:00,
2013-06-14 04:36:00,58.7,47.5,29.88,NNW,331,0.0,0.0,66,0.00,,,0.00,WUHU216DAVISVP2,2013-06-14 11:36:00,
2013-06-14 04:41:00,58.7,47.5,29.88,NNW,331,0.0,1.0,66,0.00,,,0.00,WUHU216DAVISVP2,2013-06-14 11:41:00,
2013-06-14 04:46:00,58.7,47.1,29.88,NNW,331,0.0,2.0,65,0.00,,,0.00,WUHU216DAVISVP2,2013-06-14 11:46:00,
2013-06-14 04:51:00,58.7,46.7,29.89,NNW,331,0.0,2.0,64,0.00,,,0.00,WUHU216DAVISVP2,2013-06-14 11:51:00,
2013-06-14 04:56:00,58.5,46.9,29.89,NNW,331,0.0,0.0,65,0.00,,,0.00,WUHU216DAVISVP2,2013-06-14 11:56:00,
2013-06-14 05:01:00,58.3,46.7,29.89,NNW,331,0.0,0.0,65,0.00,,,0.00,WUHU216DAVISVP2,2013-06-14 12:01:00,
2013-06-14 05:06:00,58.1,46.5,29.89,NNW,331,0.0,0.0,65,0.00,,,0.00,WUHU216DAVISVP2,2013-06-14 12:06:00,
2013-06-14 05:11:00,58.1,46.9,29.89,NNW,331,0.0,0.0,66,0.00,,,0.00,WUHU216DAVISVP2,2013-06-14 12:11:00,
2013-06-14 05:16:00,58.1,47.3,29.89,NNW,331,0.0,1.0,67,0.00,,,0.00,WUHU216DAVISVP2,2013-06-14 12:16:00,
2013-06-14 05:21:00,58.0,47.2,29.89,NNW,331,0.0,1.0,67,0.00,,,0.00,WUHU216DAVISVP2,2013-06-14 12:21:00,
2013-06-14 05:26:00,57.8,47.0,29.90,NNW,331,0.0,0.0,67,0.00,,,0.00,WUHU216DAVISVP2,2013-06-14 12:26:00,
2013-06-14 05:31:00,57.9,47.1,29.90,NNW,331,0.0,0.0,67,0.00,,,0.00,WUHU216DAVISVP2,2013-06-14 12:31:00,
2013-06-14 05:36:00,57.9,47.5,29.90,NNW,331,0.0,0.0,68,0.00,,,0.00,WUHU216DAVISVP2,2013-06-14 12:36:00,
2013-06-14 05:41:00,58.1,47.7,29.90,NNW,331,0.0,3.0,68,0.00,,,0.00,WUHU216DAVISVP2,2013-06-14 12:41:00,
2013-06-14 05:46:00,58.5,48.1,29.90,NNW,331,0.0,3.0,68,0.00,,,0.00,WUHU216DAVISVP2,2013-06-14 12:46:00,
2013-06-14 05:51:00,58.1,47.7,29.90,NNW,331,0.0,3.0,68,0.00,,,0.00,WUHU216DAVISVP2,2013-06-14 12:51:00,
2013-06-14 05:56:00,58.0,47.6,29.90,NNW,331,0.0,0.0,68,0.00,,,0.00,WUHU216DAVISVP2,2013-06-14 12:56:00,
2013-06-14 06:01:00,58.2,47.4,29.90,NNW,331,0.0,2.0,67,0.00,,,0.00,WUHU216DAVISVP2,2013-06-14 13:01:00,
2013-06-14 06:06:00,58.5,47.7,29.90,NNW,331,0.0,3.0,67,0.00,,,0.00,WUHU216DAVISVP2,2013-06-14 13:06:00,
2013-06-14 06:11:00,58.9,47.6,29.90,NNW,331,0.0,3.0,66,0.00,,,0.00,WUHU216DAVISVP2,2013-06-14 13:11:00,
2013-06-14 06:16:00,59.3,47.7,29.90,NNW,329,2.0,4.0,65,0.00,,,0.00,WUHU216DAVISVP2,2013-06-14 13:16:00,
2013-06-14 06:21:00,59.3,48.5,29.90,NNW,329,3.0,4.0,67,0.00,,,0.00,WUHU216DAVISVP2,2013-06-14 13:21:00,
2013-06-14 06:26:00,59.8,49.0,29.90,NNW,329,0.0,3.0,67,0.00,,,0.00,WUHU216DAVISVP2,2013-06-14 13:26:00,
2013-06-14 06:31:00,60.1,48.8,29.90,NNW,329,1.0,3.0,66,0.00,,,0.00,WUHU216DAVISVP2,2013-06-14 13:31:00,
2013-06-14 06:36:00,60.6,48.1,29.90,NNW,329,0.0,2.0,63,0.00,,,0.00,WUHU216DAVISVP2,2013-06-14 13:36:00,
2013-06-14 06:41:00,60.6,47.7,29.91,SW,228,3.0,4.0,62,0.00,,,0.00,WUHU216DAVISVP2,2013-06-14 13:41:00,
2013-06-14 06:46:00,60.4,47.5,29.90,SW,228,0.0,4.0,62,0.00,,,0.00,WUHU216DAVISVP2,2013-06-14 13:46:00,
2013-06-14 06:51:00,60.1,47.2,29.90,SW,228,3.0,3.0,62,0.00,,,0.00,WUHU216DAVISVP2,2013-06-14 13:51:00,
2013-06-14 06:56:00,59.9,47.0,29.91,SW,228,0.0,3.0,62,0.00,,,0.00,WUHU216DAVISVP2,2013-06-14 13:56:00,
2013-06-14 07:01:00,59.9,47.0,29.91,SW,228,0.0,3.0,62,0.00,,,0.00,WUHU216DAVISVP2,2013-06-14 14:01:00,
2013-06-14 07:06:00,60.2,47.1,29.91,SW,228,0.0,4.0,62,0.00,,,0.00,WUHU216DAVISVP2,2013-06-14 14:06:00,
2013-06-14 07:11:00,60.6,47.1,29.91,SW,227,0.0,4.0,61,0.00,,,0.00,WUHU216DAVISVP2,2013-06-14 14:11:00,
2013-06-14 07:16:00,61.0,47.0,29.91,SW,227,2.0,4.0,60,0.00,,,0.00,WUHU216DAVISVP2,2013-06-14 14:16:00,
2013-06-14 07:21:00,61.6,47.6,29.91,SW,227,3.0,4.0,60,0.00,,,0.00,WUHU216DAVISVP2,2013-06-14 14:21:00,
2013-06-14 07:26:00,62.1,47.6,29.91,SW,228,0.0,4.0,59,0.00,,,0.00,WUHU216DAVISVP2,2013-06-14 14:26:00,
2013-06-14 07:31:00,62.8,47.8,29.91,SW,227,1.0,4.0,58,0.00,,,0.00,WUHU216DAVISVP2,2013-06-14 14:31:00,
2013-06-14 07:36:00,64.0,48.0,29.91,WNW,289,4.0,8.0,56,0.00,,,0.00,WUHU216DAVISVP2,2013-06-14 14:36:00,
2013-06-14 07:41:00,64.5,48.4,29.91,WNW,294,5.0,9.0,56,0.00,,,0.00,WUHU216DAVISVP2,2013-06-14 14:41:00,
2013-06-14 07:46:00,65.0,48.9,29.91,NNW,337,9.0,11.0,56,0.00,,,0.00,WUHU216DAVISVP2,2013-06-14 14:46:00,
2013-06-14 07:51:00,65.2,49.2,29.91,NW,306,3.0,11.0,56,0.00,,,0.00,WUHU216DAVISVP2,2013-06-14 14:51:00,
2013-06-14 07:56:00,65.7,49.7,29.91,WNW,289,2.0,11.0,56,0.00,,,0.00,WUHU216DAVISVP2,2013-06-14 14:56:00,
2013-06-14 08:01:00,66.3,49.8,29.91,WNW,300,3.0,11.0,55,0.00,,,0.00,WUHU216DAVISVP2,2013-06-14 15:01:00,
2013-06-14 08:06:00,66.8,49.7,29.91,NNW,337,3.0,11.0,54,0.00,,,0.00,WUHU216DAVISVP2,2013-06-14 15:06:00,
2013-06-14 08:11:00,67.4,49.8,29.91,WNW,298,3.0,11.0,53,0.00,,,0.00,WUHU216DAVISVP2,2013-06-14 15:11:00,
2013-06-14 08:16:00,67.7,49.5,29.91,WNW,285,9.0,13.0,52,0.00,,,0.00,WUHU216DAVISVP2,2013-06-14 15:16:00,
2013-06-14 08:21:00,67.9,49.7,29.91,WNW,302,8.0,13.0,52,0.00,,,0.00,WUHU216DAVISVP2,2013-06-14 15:21:00,
2013-06-14 08:26:00,68.1,49.9,29.91,NW,309,5.0,12.0,52,0.00,,,0.00,WUHU216DAVISVP2,2013-06-14 15:26:00,
2013-06-14 08:31:00,68.2,50.0,29.91,NW,318,6.0,12.0,52,0.00,,,0.00,WUHU216DAVISVP2,2013-06-14 15:31:00,
2013-06-14 08:36:00,68.5,50.3,29.91,WNW,296,5.0,12.0,52,0.00,,,0.00,WUHU216DAVISVP2,2013-06-14 15:36:00,
2013-06-14 08:41:00,68.8,50.0,29.91,WNW,294,0.0,9.0,51,0.00,,,0.00,WUHU216DAVISVP2,2013-06-14 15:41:00,
2013-06-14 08:46:00,69.1,50.3,29.91,West,261,9.0,10.0,51,0.00,,,0.00,WUHU216DAVISVP2,2013-06-14 15:46:00,
2013-06-14 08:51:00,69.0,50.2,29.91,West,279,8.0,10.0,51,0.00,,,0.00,WUHU216DAVISVP2,2013-06-14 15:51:00,
2013-06-14 08:56:00,69.2,50.9,29.91,WNW,298,7.0,10.0,52,0.00,,,0.00,WUHU216DAVISVP2,2013-06-14 15:56:00,
2013-06-14 09:01:00,69.5,50.1,29.91,West,265,7.0,9.0,50,0.00,,,0.00,WUHU216DAVISVP2,2013-06-14 16:01:00,
2013-06-14 09:06:00,70.0,50.6,29.91,West,267,0.0,9.0,50,0.00,,,0.00,WUHU216DAVISVP2,2013-06-14 16:06:00,
2013-06-14 09:11:00,70.3,51.4,29.91,WNW,288,7.0,8.0,51,0.00,,,0.00,WUHU216DAVISVP2,2013-06-14 16:11:00,
2013-06-14 09:16:00,70.4,50.4,29.90,WNW,286,4.0,9.0,49,0.00,,,0.00,WUHU216DAVISVP2,2013-06-14 16:16:00,
2013-06-14 09:21:00,71.0,52.0,29.90,WNW,288,6.0,9.0,51,0.00,,,0.00,WUHU216DAVISVP2,2013-06-14 16:21:00,
2013-06-14 09:26:00,71.4,51.3,29.90,West,275,5.0,8.0,49,0.00,,,0.00,WUHU216DAVISVP2,2013-06-14 16:26:00,
2013-06-14 09:31:00,71.8,51.1,29.90,WSW,258,4.0,8.0,48,0.00,,,0.00,WUHU216DAVISVP2,2013-06-14 16:31:00,
2013-06-14 09:36:00,71.7,51.0,29.90,NW,305,3.0,8.0,48,0.00,,,0.00,WUHU216DAVISVP2,2013-06-14 16:36:00,
2013-06-14 09:41:00,72.1,51.9,29.90,WNW,298,4.0,8.0,49,0.00,,,0.00,WUHU216DAVISVP2,2013-06-14 16:41:00,
2013-06-14 09:46:00,72.2,51.4,29.90,WNW,285,5.0,9.0,48,0.00,,,0.00,WUHU216DAVISVP2,2013-06-14 16:46:00,
2013-06-14 09:50:00,72.4,51.0,29.90,WNW,293,5.0,9.0,47,0.00,,,0.00,WUHU216DAVISVP2,2013-06-14 16:50:00,
2013-06-14 09:55:00,72.8,50.8,29.90,NW,315,6.0,11.0,46,0.00,,,0.00,WUHU216DAVISVP2,2013-06-14 16:55:00,
2013-06-14 10:00:00,72.8,51.4,29.90,WNW,293,6.0,11.0,47,0.00,,,0.00,WUHU216DAVISVP2,2013-06-14 17:00:00,
2013-06-14 10:13:00,72.9,52.1,29.90,WNW,293,4.0,11.0,48,0.00,,,0.00,WUHU216DAVISVP2,2013-06-14 17:13:00,
2013-06-14 10:18:00,73.9,51.8,29.89,WNW,282,7.0,9.0,46,0.00,,,0.00,WUHU216DAVISVP2,2013-06-14 17:18:00,
2013-06-14 10:23:00,73.9,50.6,29.89,WNW,302,6.0,11.0,44,0.00,,,0.00,WUHU216DAVISVP2,2013-06-14 17:23:00,
2013-06-14 10:28:00,74.0,51.3,29.89,NW,323,5.0,11.0,45,0.00,,,0.00,WUHU216DAVISVP2,2013-06-14 17:28:00,
2013-06-14 10:33:00,74.5,52.4,29.89,West,271,3.0,9.0,46,0.00,,,0.00,WUHU216DAVISVP2,2013-06-14 17:33:00,
2013-06-14 10:38:00,75.4,52.0,29.90,WNW,297,9.0,11.0,44,0.00,,,0.00,WUHU216DAVISVP2,2013-06-14 17:38:00,
2013-06-14 10:43:00,75.3,51.9,29.89,WNW,300,5.0,11.0,44,0.00,,,0.00,WUHU216DAVISVP2,2013-06-14 17:43:00,
2013-06-14 10:48:00,75.8,52.3,29.89,NW,306,5.0,8.0,44,0.00,,,0.00,WUHU216DAVISVP2,2013-06-14 17:48:00,
2013-06-14 10:53:00,76.2,50.7,29.89,WNW,290,5.0,8.0,41,0.00,,,0.00,WUHU216DAVISVP2,2013-06-14 17:53:00,
2013-06-14 10:58:00,75.5,50.7,29.89,NW,306,3.0,8.0,42,0.00,,,0.00,WUHU216DAVISVP2,2013-06-14 17:58:00,
2013-06-14 11:03:00,76.0,51.2,29.89,WNW,294,5.0,10.0,42,0.00,,,0.00,WUHU216DAVISVP2,2013-06-14 18:03:00,
2013-06-14 11:08:00,76.6,52.4,29.89,NW,320,4.0,10.0,43,0.00,,,0.00,WUHU216DAVISVP2,2013-06-14 18:08:00,
2013-06-14 11:13:00,76.7,50.5,29.89,West,271,3.0,9.0,40,0.00,,,0.00,WUHU216DAVISVP2,2013-06-14 18:13:00,
2013-06-14 11:18:00,77.0,50.7,29.89,West,277,5.0,9.0,40,0.00,,,0.00,WUHU216DAVISVP2,2013-06-14 18:18:00,
2013-06-14 11:23:00,77.2,51.6,29.89,West,275,8.0,9.0,41,0.00,,,0.00,WUHU216DAVISVP2,2013-06-14 18:23:00,
2013-06-14 11:28:00,77.3,51.7,29.88,WNW,293,4.0,13.0,41,0.00,,,0.00,WUHU216DAVISVP2,2013-06-14 18:28:00,
2013-06-14 11:33:00,77.8,50.8,29.88,WNW,292,6.0,13.0,39,0.00,,,0.00,WUHU216DAVISVP2,2013-06-14 18:33:00,
2013-06-14 11:38:00,78.4,51.3,29.88,WNW,296,10.0,10.0,39,0.00,,,0.00,WUHU216DAVISVP2,2013-06-14 18:38:00,
2013-06-14 11:43:00,78.2,51.1,29.88,West,273,0.0,10.0,39,0.00,,,0.00,WUHU216DAVISVP2,2013-06-14 18:43:00,
2013-06-14 11:48:00,79.4,50.7,29.88,WNW,287,4.0,10.0,37,0.00,,,0.00,WUHU216DAVISVP2,2013-06-14 18:48:00,
2013-06-14 11:53:00,79.1,51.9,29.88,NNW,331,7.0,8.0,39,0.00,,,0.00,WUHU216DAVISVP2,2013-06-14 18:53:00,
2013-06-14 11:58:00,79.2,51.3,29.88,West,273,8.0,10.0,38,0.00,,,0.00,WUHU216DAVISVP2,2013-06-14 18:58:00,
2013-06-14 12:03:00,80.1,52.1,29.88,WNW,295,4.0,10.0,38,0.00,,,0.00,WUHU216DAVISVP2,2013-06-14 19:03:00,
2013-06-14 12:08:00,80.2,52.2,29.88,NNW,329,6.0,9.0,38,0.00,,,0.00,WUHU216DAVISVP2,2013-06-14 19:08:00,
2013-06-14 12:13:00,79.9,51.3,29.88,West,271,5.0,10.0,37,0.00,,,0.00,WUHU216DAVISVP2,2013-06-14 19:13:00,
2013-06-14 12:18:00,80.4,52.5,29.87,NW,305,10.0,12.0,38,0.00,,,0.00,WUHU216DAVISVP2,2013-06-14 19:18:00,
2013-06-14 12:23:00,79.5,50.8,29.87,NW,311,1.0,12.0,37,0.00,,,0.00,WUHU216DAVISVP2,2013-06-14 19:23:00,
2013-06-14 12:28:00,81.1,52.3,29.87,NNE,25,0.0,11.0,37,0.00,,,0.00,WUHU216DAVISVP2,2013-06-14 19:28:00,
2013-06-14 12:33:00,81.2,52.3,29.87,NW,316,9.0,11.0,37,0.00,,,0.00,WUHU216DAVISVP2,2013-06-14 19:33:00,
2013-06-14 12:38:00,81.1,50.7,29.87,NW,317,8.0,11.0,35,0.00,,,0.00,WUHU216DAVISVP2,2013-06-14 19:38:00,
2013-06-14 12:43:00,81.4,51.8,29.87,NW,315,5.0,11.0,36,0.00,,,0.00,WUHU216DAVISVP2,2013-06-14 19:43:00,
2013-06-14 12:48:00,82.1,51.6,29.86,NW,325,6.0,10.0,35,0.00,,,0.00,WUHU216DAVISVP2,2013-06-14 19:48:00,
2013-06-14 12:53:00,81.6,52.7,29.86,NNW,338,5.0,10.0,37,0.00,,,0.00,WUHU216DAVISVP2,2013-06-14 19:53:00,
2013-06-14 12:58:00,82.4,52.6,29.86,NW,310,8.0,10.0,36,0.00,,,0.00,WUHU216DAVISVP2,2013-06-14 19:58:00,
2013-06-14 13:03:00,82.4,52.6,29.86,NNW,328,4.0,9.0,36,0.00,,,0.00,WUHU216DAVISVP2,2013-06-14 20:03:00,
2013-06-14 13:08:00,82.6,51.4,29.86,WNW,295,5.0,9.0,34,0.00,,,0.00,WUHU216DAVISVP2,2013-06-14 20:08:00,
2013-06-14 13:13:00,82.5,53.6,29.85,NW,306,0.0,9.0,37,0.00,,,0.00,WUHU216DAVISVP2,2013-06-14 20:13:00,
2013-06-14 13:18:00,82.8,50.8,29.85,NW,315,3.0,9.0,33,0.00,,,0.00,WUHU216DAVISVP2,2013-06-14 20:18:00,
2013-06-14 13:23:00,82.9,49.9,29.85,NW,306,7.0,12.0,32,0.00,,,0.00,WUHU216DAVISVP2,2013-06-14 20:23:00,
2013-06-14 13:28:00,82.7,48.8,29.85,NNW,341,4.0,12.0,31,0.00,,,0.00,WUHU216DAVISVP2,2013-06-14 20:28:00,
2013-06-14 13:33:00,82.9,49.0,29.84,NW,319,6.0,9.0,31,0.00,,,0.00,WUHU216DAVISVP2,2013-06-14 20:33:00,
2013-06-14 13:38:00,83.2,50.1,29.84,NNW,333,2.0,11.0,32,0.00,,,0.00,WUHU216DAVISVP2,2013-06-14 20:38:00,
2013-06-14 13:43:00,83.3,48.5,29.84,West,275,8.0,13.0,30,0.00,,,0.00,WUHU216DAVISVP2,2013-06-14 20:43:00,
2013-06-14 13:48:00,83.8,50.7,29.84,NW,312,6.0,13.0,32,0.00,,,0.00,WUHU216DAVISVP2,2013-06-14 20:48:00,
2013-06-14 13:53:00,84.3,52.8,29.84,NW,311,6.0,11.0,34,0.00,,,0.00,WUHU216DAVISVP2,2013-06-14 20:53:00,
2013-06-14 13:58:00,84.3,51.1,29.84,NNW,327,7.0,10.0,32,0.00,,,0.00,WUHU216DAVISVP2,2013-06-14 20:58:00,
2013-06-14 14:03:00,84.4,48.5,29.83,NNW,348,4.0,11.0,29,0.00,,,0.00,WUHU216DAVISVP2,2013-06-14 21:03:00,
2013-06-14 14:08:00,84.8,50.7,29.83,NNW,327,5.0,11.0,31,0.00,,,0.00,WUHU216DAVISVP2,2013-06-14 21:08:00,
2013-06-14 14:13:00,85.1,50.9,29.83,WNW,295,0.0,10.0,31,0.00,,,0.00,WUHU216DAVISVP2,2013-06-14 21:13:00,
2013-06-14 14:18:00,85.3,49.3,29.83,NNW,333,6.0,11.0,29,0.00,,,0.00,WUHU216DAVISVP2,2013-06-14 21:18:00,
2013-06-14 14:23:00,85.0,50.8,29.82,NW,319,8.0,11.0,31,0.00,,,0.00,WUHU216DAVISVP2,2013-06-14 21:23:00,
2013-06-14 14:28:00,85.2,51.1,29.82,NW,309,9.0,10.0,31,0.00,,,0.00,WUHU216DAVISVP2,2013-06-14 21:28:00,
2013-06-14 14:33:00,86.0,51.0,29.82,North,355,4.0,10.0,30,0.00,,,0.00,WUHU216DAVISVP2,2013-06-14 21:33:00,
2013-06-14 14:38:00,85.9,51.6,29.82,NNW,328,7.0,10.0,31,0.00,,,0.00,WUHU216DAVISVP2,2013-06-14 21:38:00,
2013-06-14 14:43:00,85.6,49.7,29.82,West,281,6.0,10.0,29,0.00,,,0.00,WUHU216DAVISVP2,2013-06-14 21:43:00,
2013-06-14 14:48:00,86.0,51.7,29.81,NNW,328,4.0,10.0,31,0.00,,,0.00,WUHU216DAVISVP2,2013-06-14 21:48:00,
2013-06-14 14:53:00,86.9,54.2,29.81,NW,324,0.0,11.0,33,0.00,,,0.00,WUHU216DAVISVP2,2013-06-14 21:53:00,
2013-06-14 14:58:00,87.1,50.9,29.81,NW,323,0.0,11.0,29,0.00,,,0.00,WUHU216DAVISVP2,2013-06-14 21:58:00,
2013-06-14 15:03:00,86.6,50.4,29.81,North,355,5.0,11.0,29,0.00,,,0.00,WUHU216DAVISVP2,2013-06-14 22:03:00,
2013-06-14 15:08:00,86.9,48.8,29.81,NW,311,2.0,13.0,27,0.00,,,0.00,WUHU216DAVISVP2,2013-06-14 22:08:00,
2013-06-14 15:13:00,86.9,48.8,29.81,NW,325,3.0,13.0,27,0.00,,,0.00,WUHU216DAVISVP2,2013-06-14 22:13:00,
2013-06-14 15:18:00,87.9,47.7,29.80,NW,321,0.0,9.0,25,0.00,,,0.00,WUHU216DAVISVP2,2013-06-14 22:18:00,
2013-06-14 15:23:00,87.8,50.5,29.80,North,350,6.0,11.0,28,0.00,,,0.00,WUHU216DAVISVP2,2013-06-14 22:23:00,
2013-06-14 15:28:00,87.9,48.6,29.80,NW,322,3.0,11.0,26,0.00,,,0.00,WUHU216DAVISVP2,2013-06-14 22:28:00,
2013-06-14 15:33:00,87.4,50.2,29.80,NW,306,3.0,11.0,28,0.00,,,0.00,WUHU216DAVISVP2,2013-06-14 22:33:00,
2013-06-14 15:38:00,88.1,49.8,29.80,NNW,344,1.0,14.0,27,0.00,,,0.00,WUHU216DAVISVP2,2013-06-14 22:38:00,
2013-06-14 15:43:00,88.3,50.1,29.80,NW,321,7.0,14.0,27,0.00,,,0.00,WUHU216DAVISVP2,2013-06-14 22:43:00,
2013-06-14 15:48:00,88.8,47.4,29.79,North,5,6.0,10.0,24,0.00,,,0.00,WUHU216DAVISVP2,2013-06-14 22:48:00,
2013-06-14 15:53:00,89.1,49.7,29.79,NNW,327,5.0,10.0,26,0.00,,,0.00,WUHU216DAVISVP2,2013-06-14 22:53:00,
2013-06-14 15:58:00,89.1,46.5,29.79,North,355,5.0,9.0,23,0.00,,,0.00,WUHU216DAVISVP2,2013-06-14 22:58:00,
2013-06-14 16:03:00,89.2,48.7,29.79,NW,316,2.0,11.0,25,0.00,,,0.00,WUHU216DAVISVP2,2013-06-14 23:03:00,
2013-06-14 16:08:00,88.9,49.5,29.79,NNW,329,0.0,11.0,26,0.00,,,0.00,WUHU216DAVISVP2,2013-06-14 23:08:00,
2013-06-14 16:13:00,88.2,49.9,29.78,NW,319,6.0,10.0,27,0.00,,,0.00,WUHU216DAVISVP2,2013-06-14 23:13:00,
2013-06-14 16:18:00,88.9,48.5,29.78,NW,326,4.0,10.0,25,0.00,,,0.00,WUHU216DAVISVP2,2013-06-14 23:18:00,
2013-06-14 16:23:00,88.9,46.3,29.78,NNW,334,1.0,10.0,23,0.00,,,0.00,WUHU216DAVISVP2,2013-06-14 23:23:00,
2013-06-14 16:28:00,89.9,48.2,29.78,NNW,329,4.0,9.0,24,0.00,,,0.00,WUHU216DAVISVP2,2013-06-14 23:28:00,
2013-06-14 16:33:00,90.0,43.5,29.78,North,9,11.0,11.0,20,0.00,,,0.00,WUHU216DAVISVP2,2013-06-14 23:33:00,
2013-06-14 16:38:00,88.6,43.7,29.78,NW,318,0.0,11.0,21,0.00,,,0.00,WUHU216DAVISVP2,2013-06-14 23:38:00,
2013-06-14 16:43:00,88.8,46.2,29.78,NNW,339,2.0,11.0,23,0.00,,,0.00,WUHU216DAVISVP2,2013-06-14 23:43:00,
2013-06-14 16:48:00,89.3,46.6,29.77,NNE,14,2.0,8.0,23,0.00,,,0.00,WUHU216DAVISVP2,2013-06-14 23:48:00,
2013-06-14 16:53:00,88.3,43.4,29.77,WNW,296,7.0,9.0,21,0.00,,,0.00,WUHU216DAVISVP2,2013-06-14 23:53:00,
2013-06-14 16:58:00,87.7,42.9,29.77,NNW,328,5.0,12.0,21,0.00,,,0.00,WUHU216DAVISVP2,2013-06-14 23:58:00,
2013-06-14 17:03:00,87.4,41.4,29.77,NW,324,4.0,12.0,20,0.00,,,0.00,WUHU216DAVISVP2,2013-06-15 00:03:00,
2013-06-14 17:08:00,87.5,43.9,29.77,WNW,298,0.0,9.0,22,0.00,,,0.00,WUHU216DAVISVP2,2013-06-15 00:08:00,
2013-06-14 17:13:00,87.7,45.3,29.77,NNW,331,4.0,11.0,23,0.00,,,0.00,WUHU216DAVISVP2,2013-06-15 00:13:00,
2013-06-14 17:18:00,87.9,47.6,29.76,NW,306,4.0,11.0,25,0.00,,,0.00,WUHU216DAVISVP2,2013-06-15 00:18:00,
2013-06-14 17:23:00,87.6,45.2,29.76,NNW,328,6.0,10.0,23,0.00,,,0.00,WUHU216DAVISVP2,2013-06-15 00:23:00,
2013-06-14 17:28:00,87.0,45.8,29.76,NW,325,3.0,12.0,24,0.00,,,0.00,WUHU216DAVISVP2,2013-06-15 00:28:00,
2013-06-14 17:33:00,86.8,47.8,29.76,NW,324,6.0,12.0,26,0.00,,,0.00,WUHU216DAVISVP2,2013-06-15 00:33:00,
2013-06-14 17:38:00,87.9,49.7,29.76,NW,315,4.0,8.0,27,0.00,,,0.00,WUHU216DAVISVP2,2013-06-15 00:38:00,
2013-06-14 17:43:00,87.5,47.3,29.76,NW,309,6.0,9.0,25,0.00,,,0.00,WUHU216DAVISVP2,2013-06-15 00:43:00,
2013-06-14 17:48:00,86.7,47.6,29.75,WNW,296,5.0,9.0,26,0.00,,,0.00,WUHU216DAVISVP2,2013-06-15 00:48:00,
2013-06-14 17:53:00,87.0,46.9,29.75,WNW,302,5.0,9.0,25,0.00,,,0.00,WUHU216DAVISVP2,2013-06-15 00:53:00,
2013-06-14 17:58:00,87.3,47.1,29.75,NNW,329,7.0,9.0,25,0.00,,,0.00,WUHU216DAVISVP2,2013-06-15 00:58:00,
2013-06-14 18:03:00,87.0,45.8,29.75,NW,306,5.0,9.0,24,0.00,,,0.00,WUHU216DAVISVP2,2013-06-15 01:03:00,
2013-06-14 18:08:00,86.8,45.6,29.75,NW,311,5.0,10.0,24,0.00,,,0.00,WUHU216DAVISVP2,2013-06-15 01:08:00,
2013-06-14 18:13:00,87.1,46.9,29.75,WNW,298,5.0,10.0,25,0.00,,,0.00,WUHU216DAVISVP2,2013-06-15 01:13:00,
2013-06-14 18:18:00,87.0,47.9,29.75,WNW,302,4.0,9.0,26,0.00,,,0.00,WUHU216DAVISVP2,2013-06-15 01:18:00,
2013-06-14 18:23:00,87.1,48.1,29.75,West,277,8.0,9.0,26,0.00,,,0.00,WUHU216DAVISVP2,2013-06-15 01:23:00,
2013-06-14 18:28:00,87.1,48.1,29.75,NNW,327,6.0,10.0,26,0.00,,,0.00,WUHU216DAVISVP2,2013-06-15 01:28:00,
2013-06-14 18:33:00,86.9,48.8,29.75,NW,305,6.0,10.0,27,0.00,,,0.00,WUHU216DAVISVP2,2013-06-15 01:33:00,
2013-06-14 18:38:00,86.6,46.5,29.75,WNW,300,6.0,11.0,25,0.00,,,0.00,WUHU216DAVISVP2,2013-06-15 01:38:00,
2013-06-14 18:43:00,86.7,48.6,29.75,NW,313,5.0,11.0,27,0.00,,,0.00,WUHU216DAVISVP2,2013-06-15 01:43:00,
2013-06-14 18:48:00,86.4,47.4,29.75,NW,309,8.0,11.0,26,0.00,,,0.00,WUHU216DAVISVP2,2013-06-15 01:48:00,
2013-06-14 18:53:00,85.6,47.7,29.75,WNW,285,2.0,11.0,27,0.00,,,0.00,WUHU216DAVISVP2,2013-06-15 01:53:00,
2013-06-14 18:58:00,85.0,48.2,29.75,WNW,298,4.0,11.0,28,0.00,,,0.00,WUHU216DAVISVP2,2013-06-15 01:58:00,
2013-06-14 19:03:00,84.5,47.7,29.75,NW,304,5.0,7.0,28,0.00,,,0.00,WUHU216DAVISVP2,2013-06-15 02:03:00,
2013-06-14 19:08:00,83.9,48.1,29.75,NW,307,5.0,7.0,29,0.00,,,0.00,WUHU216DAVISVP2,2013-06-15 02:08:00,
2013-06-14 19:13:00,83.4,47.7,29.75,NW,305,0.0,6.0,29,0.00,,,0.00,WUHU216DAVISVP2,2013-06-15 02:13:00,
2013-06-14 19:18:00,82.7,48.0,29.75,NW,306,3.0,6.0,30,0.00,,,0.00,WUHU216DAVISVP2,2013-06-15 02:18:00,
2013-06-14 19:23:00,82.3,46.7,29.75,NW,306,2.0,5.0,29,0.00,,,0.00,WUHU216DAVISVP2,2013-06-15 02:23:00,
2013-06-14 19:28:00,82.1,46.6,29.75,NNW,328,3.0,4.0,29,0.00,,,0.00,WUHU216DAVISVP2,2013-06-15 02:28:00,
2013-06-14 19:33:00,81.9,46.4,29.76,WNW,290,0.0,5.0,29,0.00,,,0.00,WUHU216DAVISVP2,2013-06-15 02:33:00,
2013-06-14 19:38:00,81.8,46.4,29.76,WNW,290,2.0,5.0,29,0.00,,,0.00,WUHU216DAVISVP2,2013-06-15 02:38:00,
2013-06-14 19:43:00,81.5,47.1,29.76,WNW,290,0.0,5.0,30,0.00,,,0.00,WUHU216DAVISVP2,2013-06-15 02:43:00,
2013-06-14 19:48:00,81.4,46.8,29.76,WNW,290,0.0,6.0,30,0.00,,,0.00,WUHU216DAVISVP2,2013-06-15 02:48:00,
2013-06-14 19:53:00,81.3,46.8,29.76,WNW,287,0.0,6.0,30,0.00,,,0.00,WUHU216DAVISVP2,2013-06-15 02:53:00,
2013-06-14 19:58:00,81.0,46.5,29.76,WNW,296,0.0,6.0,30,0.00,,,0.00,WUHU216DAVISVP2,2013-06-15 02:58:00,
2013-06-14 20:03:00,80.7,46.4,29.76,WNW,295,4.0,6.0,30,0.00,,,0.00,WUHU216DAVISVP2,2013-06-15 03:03:00,
2013-06-14 20:08:00,80.3,46.8,29.76,WNW,294,4.0,5.0,31,0.00,,,0.00,WUHU216DAVISVP2,2013-06-15 03:08:00,
2013-06-14 20:13:00,80.0,46.5,29.76,WNW,292,4.0,6.0,31,0.00,,,0.00,WUHU216DAVISVP2,2013-06-15 03:13:00,
2013-06-14 20:18:00,79.7,47.2,29.76,WNW,298,2.0,6.0,32,0.00,,,0.00,WUHU216DAVISVP2,2013-06-15 03:18:00,
2013-06-14 20:23:00,79.3,46.7,29.76,WNW,288,2.0,6.0,32,0.00,,,0.00,WUHU216DAVISVP2,2013-06-15 03:23:00,
2013-06-14 20:28:00,79.0,47.3,29.76,WNW,288,3.0,5.0,33,0.00,,,0.00,WUHU216DAVISVP2,2013-06-15 03:28:00,
2013-06-14 20:33:00,78.7,47.8,29.76,WNW,288,2.0,5.0,34,0.00,,,0.00,WUHU216DAVISVP2,2013-06-15 03:33:00,
2013-06-14 20:38:00,78.5,47.8,29.76,WNW,288,0.0,5.0,34,0.00,,,0.00,WUHU216DAVISVP2,2013-06-15 03:38:00,
2013-06-14 20:43:00,78.2,48.3,29.76,WNW,288,0.0,6.0,35,0.00,,,0.00,WUHU216DAVISVP2,2013-06-15 03:43:00,
2013-06-14 20:48:00,77.8,48.6,29.76,WNW,288,2.0,6.0,36,0.00,,,0.00,WUHU216DAVISVP2,2013-06-15 03:48:00,
2013-06-14 20:53:00,77.5,49.0,29.76,WNW,288,2.0,4.0,37,0.00,,,0.00,WUHU216DAVISVP2,2013-06-15 03:53:00,
2013-06-14 20:58:00,77.0,49.3,29.76,WNW,288,1.0,4.0,38,0.00,,,0.00,WUHU216DAVISVP2,2013-06-15 03:58:00,
2013-06-14 21:01:00,76.4,50.3,29.76,WNW,288,2.0,4.0,40,0.00,,,0.00,WUHU216DAVISVP2,2013-06-15 04:01:00,
2013-06-14 21:06:00,74.5,50.5,29.76,WNW,288,0.0,3.0,43,0.00,,,0.00,WUHU216DAVISVP2,2013-06-15 04:06:00,
2013-06-14 21:11:00,73.4,50.8,29.77,WNW,288,3.0,3.0,45,0.00,,,0.00,WUHU216DAVISVP2,2013-06-15 04:11:00,
2013-06-14 21:16:00,73.0,50.4,29.77,WNW,288,0.0,3.0,45,0.00,,,0.00,WUHU216DAVISVP2,2013-06-15 04:16:00,
2013-06-14 21:21:00,72.9,50.9,29.77,WNW,288,2.0,3.0,46,0.00,,,0.00,WUHU216DAVISVP2,2013-06-15 04:21:00,
2013-06-14 21:26:00,72.7,50.7,29.77,WNW,288,3.0,3.0,46,0.00,,,0.00,WUHU216DAVISVP2,2013-06-15 04:26:00,
2013-06-14 21:31:00,72.9,50.9,29.77,WNW,288,0.0,3.0,46,0.00,,,0.00,WUHU216DAVISVP2,2013-06-15 04:31:00,
2013-06-14 21:36:00,73.4,50.1,29.77,WNW,288,4.0,4.0,44,0.00,,,0.00,WUHU216DAVISVP2,2013-06-15 04:36:00,
2013-06-14 21:41:00,73.5,50.2,29.77,WNW,289,2.0,5.0,44,0.00,,,0.00,WUHU216DAVISVP2,2013-06-15 04:41:00,
2013-06-14 21:46:00,73.2,49.9,29.78,WNW,289,2.0,5.0,44,0.00,,,0.00,WUHU216DAVISVP2,2013-06-15 04:46:00,
2013-06-14 21:51:00,73.2,50.6,29.78,WNW,289,1.0,4.0,45,0.00,,,0.00,WUHU216DAVISVP2,2013-06-15 04:51:00,
2013-06-14 21:56:00,72.7,50.1,29.78,WNW,292,3.0,4.0,45,0.00,,,0.00,WUHU216DAVISVP2,2013-06-15 04:56:00,
2013-06-14 22:01:00,72.6,50.0,29.78,WNW,292,2.0,4.0,45,0.00,,,0.00,WUHU216DAVISVP2,2013-06-15 05:01:00,
2013-06-14 22:06:00,72.8,50.2,29.78,WNW,292,0.0,5.0,45,0.00,,,0.00,WUHU216DAVISVP2,2013-06-15 05:06:00,
2013-06-14 22:11:00,72.8,49.6,29.78,WNW,300,0.0,5.0,44,0.00,,,0.00,WUHU216DAVISVP2,2013-06-15 05:11:00,
2013-06-14 22:16:00,72.2,49.7,29.78,WNW,300,0.0,4.0,45,0.00,,,0.00,WUHU216DAVISVP2,2013-06-15 05:16:00,
2013-06-14 22:21:00,71.7,49.8,29.79,WNW,300,2.0,3.0,46,0.00,,,0.00,WUHU216DAVISVP2,2013-06-15 05:21:00,
2013-06-14 22:26:00,71.7,49.8,29.79,WNW,300,0.0,3.0,46,0.00,,,0.00,WUHU216DAVISVP2,2013-06-15 05:26:00,
2013-06-14 22:31:00,71.3,50.0,29.79,WNW,300,0.0,2.0,47,0.00,,,0.00,WUHU216DAVISVP2,2013-06-15 05:31:00,
2013-06-14 22:36:00,71.0,50.3,29.79,WNW,300,1.0,1.0,48,0.00,,,0.00,WUHU216DAVISVP2,2013-06-15 05:36:00,
2013-06-14 22:41:00,70.8,50.1,29.79,WNW,300,0.0,2.0,48,0.00,,,0.00,WUHU216DAVISVP2,2013-06-15 05:41:00,
2013-06-14 22:46:00,70.9,50.2,29.79,WNW,300,2.0,2.0,48,0.00,,,0.00,WUHU216DAVISVP2,2013-06-15 05:46:00,
2013-06-14 22:51:00,70.6,50.6,29.79,WNW,300,0.0,2.0,49,0.00,,,0.00,WUHU216DAVISVP2,2013-06-15 05:51:00,
2013-06-14 22:56:00,69.8,49.8,29.79,WNW,300,0.0,2.0,49,0.00,,,0.00,WUHU216DAVISVP2,2013-06-15 05:56:00,
2013-06-14 23:01:00,69.5,50.6,29.79,WNW,299,0.0,0.0,51,0.00,,,0.00,WUHU216DAVISVP2,2013-06-15 06:01:00,
2013-06-14 23:06:00,69.1,50.8,29.79,WNW,300,0.0,1.0,52,0.00,,,0.00,WUHU216DAVISVP2,2013-06-15 06:06:00,
2013-06-14 23:11:00,68.9,50.6,29.79,WNW,299,0.0,1.0,52,0.00,,,0.00,WUHU216DAVISVP2,2013-06-15 06:11:00,
2013-06-14 23:16:00,69.1,50.8,29.79,WNW,300,1.0,3.0,52,0.00,,,0.00,WUHU216DAVISVP2,2013-06-15 06:16:00,
2013-06-14 23:21:00,69.4,51.1,29.79,WNW,300,0.0,3.0,52,0.00,,,0.00,WUHU216DAVISVP2,2013-06-15 06:21:00,
2013-06-14 23:26:00,69.3,51.0,29.79,WNW,300,1.0,3.0,52,0.00,,,0.00,WUHU216DAVISVP2,2013-06-15 06:26:00,
2013-06-14 23:31:00,69.3,51.0,29.79,WNW,300,0.0,3.0,52,0.00,,,0.00,WUHU216DAVISVP2,2013-06-15 06:31:00,
2013-06-14 23:36:00,69.3,51.0,29.79,WNW,300,2.0,3.0,52,0.00,,,0.00,WUHU216DAVISVP2,2013-06-15 06:36:00,
2013-06-14 23:41:00,68.6,51.3,29.79,WNW,300,0.0,3.0,54,0.00,,,0.00,WUHU216DAVISVP2,2013-06-15 06:41:00,
2013-06-14 23:46:00,68.1,51.3,29.79,WNW,300,0.0,3.0,55,0.00,,,0.00,WUHU216DAVISVP2,2013-06-15 06:46:00,
2013-06-14 23:51:00,68.3,51.0,29.79,WNW,300,0.0,4.0,54,0.00,,,0.00,WUHU216DAVISVP2,2013-06-15 06:51:00,
2013-06-14 23:56:00,67.8,51.5,29.79,WNW,300,2.0,4.0,56,0.00,,,0.00,WUHU216DAVISVP2,2013-06-15 06:56:00,